User: anonymous   Login
Location: Unspecified
(0.0000°N, 0.0000°E)
Time: 07:02:10
(UTC+02:00)
Language:

Meteor 2-8 Rocket - Orbit

View from above orbital plane
View from above orbital plane
View from above satellite
View from above satellite

Ground track
Ground track

The orbit data is extracted from the following two-line orbital elements,

1 13114U 82025B   15184.19754120  .00000043  00000-0  25061-4 0  9990
2 13114 082.5393 051.6934 0014608 003.9070 114.6796 13.84644390681469
Epoch (UTC): 03 July 2015 04:44:27
Eccentricity: 0.0014608
inclination: 82.5393°
perigee height: 937 km
apogee height: 958 km
right ascension of ascending node: 51.6934°
argument of perigee: 3.9070°
revolutions per day: 13.84644390
mean anomaly at epoch: 114.6796°
orbit number at epoch: 68146

The dashed part of the orbit path shows where the satellite is in the earth's shadow,  

DLR